Location: Dötzum
(52.0808°N, 9.8063°E)
Time: 05:11:43
(UTC+00:00)

USA 305 - Pass Details

Date: 27 May 2022
Orbit: 549 x 553 km, 54.0° (Epoch: 14 June)

Event Time Altitude Azimuth Distance (km) Brightness Sun altitude
Exits shadow 00:58:13 17° 238° (WSW) 1,422 4.4 -13.4°
Maximum altitude 01:01:18 72° 157° (SSE) 582 2.8 -13.3°
Drops below altitude 10° 01:05:26 10° 72° (ENE) 1,828 6.1 -13.0°
Sets 01:07:41 0° 71° (ENE) 2,724 7.1 -12.8°
